Location: Celina Division
(33.3022°N, 96.7580°W)
Time: 04:48:52
(UTC+00:00)

Cosmos 1812 - Pass Details

Date: 29 June 2022
Orbit: 508 x 515 km, 82.5° (Epoch: 07 August)

Event Time Altitude Azimuth Distance (km) Brightness Sun altitude
Rises 07:35:55 0° 13° (NNE) 2,632 7.4 -31.4°
Reaches altitude 10° 07:38:37 10° 33° (NNE) 1,739 6.2 -31.2°
Enters shadow 07:40:13 16° 57° (ENE) 1,395 5.4 -31.1°
